Weather History for Defiance, OH

Change the Weather History Date:

Friday, January 11, 2013

  Actual Average Record
Temperature  
Mean Temperature 48 °F -  
Max Temperature 59 °F 29 °F 59 °F (2013)
Min Temperature 37 °F 12 °F -18 °F (1982)
Degree Days  
Heating Degree Days 17    
Moisture  
Dew Point 44 °F    
Average Humidity 88    
Maximum Humidity 100    
Minimum Humidity 72    
Precipitation  
Precipitation 0.62 in - - ()
Sea Level Pressure  
Sea Level Pressure 29.90 in    
Wind  
Wind Speed 7 mph (South)    
Max Wind Speed 16 mph    
Max Gust Speed 24 mph    
Visibility 7 miles    
Events Rain    
Averages and records for this station are not official NWS values.
T = Trace of Precipitation, MM = Missing Value Source: NWS Daily Summary

Daily Weather History Graph

Daily Weather History Graph

Search for Another Location

Airport:

Trip Planner

Search our weather history database for the weather conditions in past years. The results will help you decide how hot, cold, wet, or windy it might be!

Date:

Astronomy

Jan. 11, 2013 Rise Set
Actual Time 8:02 AM EST 5:29 PM EST
Civil Twilight 7:32 AM EST 5:59 PM EST
Nautical Twilight 6:57 AM EST 6:34 PM EST
Astronomical Twilight 6:24 AM EST 7:07 PM EST
Moon 7:34 AM EST (1/11) 5:46 PM EST (1/11)
Length of Visible Light 10h 27m
Length of Day
9h 26m
Waning Crescent, 0% of the Moon is Illuminated
Jan 11
Waning Crescent
Jan 11
New
Jan 18
First Quarter
Jan 26
Full
Feb 3
Last Quarter

Hourly Weather History & Observations

Time (EST) Temp. Windchill Dew Point Humidity Pressure Visibility Wind Dir Wind Speed Gust Speed Precip Events Conditions
12:24 AM 37.4 °F 31.4 °F 32.0 °F 81% 30.11 in 10.0 mi ESE 8.1 mph - N/A   Overcast
12:53 AM 37.9 °F 31.5 °F 32.0 °F 79% 30.11 in 6.0 mi ESE 9.2 mph - 0.01 in Rain Light Rain
1:22 AM 37.4 °F 32.8 °F 33.8 °F 87% 30.07 in 4.0 mi ESE 5.8 mph - 0.05 in Rain Rain
1:53 AM 37.9 °F 34.4 °F 35.1 °F 89% 30.07 in 6.0 mi East 4.6 mph - 0.06 in   Overcast
2:53 AM 37.9 °F 32.7 °F 35.1 °F 89% 30.03 in 5.0 mi ENE 6.9 mph - 0.01 in Rain Light Rain
3:53 AM 37.9 °F 35.5 °F 36.0 °F 93% 30.00 in 6.0 mi ENE 3.5 mph - 0.00 in   Overcast
4:53 AM 39.0 °F 35.7 °F 36.0 °F 89% 29.95 in 6.0 mi East 4.6 mph - N/A   Overcast
5:53 AM 39.0 °F 36.8 °F 37.0 °F 93% 29.93 in 5.0 mi North 3.5 mph - 0.01 in Rain Light Rain
6:08 AM 39.2 °F - 37.4 °F 93% 29.92 in 2.0 mi Calm Calm - 0.04 in Rain Rain
6:17 AM 39.2 °F - 37.4 °F 93% 29.93 in 1.5 mi Calm Calm - 0.09 in Rain Heavy Rain
6:44 AM 39.2 °F 33.6 °F 37.4 °F 93% 29.92 in 0.8 mi SE 8.1 mph - 0.39 in Rain Heavy Rain
6:53 AM 43.0 °F 38.2 °F 41.0 °F 93% 29.94 in 1.8 mi South 8.1 mph - 0.43 in Rain Heavy Rain
6:57 AM 42.8 °F 38.6 °F 42.8 °F 100% 29.91 in 2.5 mi SSE 6.9 mph 16.1 mph 0.01 in Rain Rain
7:04 AM 42.8 °F 40.1 °F 42.8 °F 100% 29.90 in 2.5 mi SSE 4.6 mph - 0.03 in Rain Light Rain
7:16 AM 42.8 °F 40.1 °F 42.8 °F 100% 29.89 in 3.0 mi ESE 4.6 mph - 0.03 in Rain Light Rain
7:23 AM 42.8 °F 39.3 °F 42.8 °F 100% 29.89 in 2.5 mi ESE 5.8 mph - 0.03 in   Overcast
7:42 AM 44.6 °F 41.4 °F 42.8 °F 93% 29.90 in 3.0 mi SSE 5.8 mph - 0.04 in Rain Light Rain
7:53 AM 45.0 °F 41.2 °F 44.1 °F 97% 29.91 in 3.0 mi SSE 6.9 mph - 0.06 in Rain Light Rain
8:53 AM 51.1 °F - 48.9 °F 92% 29.82 in 10.0 mi South 16.1 mph 23.0 mph 0.01 in   Mostly Cloudy
9:00 AM 51.8 °F - 48.2 °F 88% 29.80 in 10.0 mi South 12.7 mph 24.2 mph N/A   Scattered Clouds
9:53 AM 52.0 °F - 50.0 °F 93% 29.84 in 10.0 mi South 9.2 mph - N/A   Mostly Cloudy
10:07 AM 51.8 °F - 48.2 °F 88% 29.84 in 10.0 mi South 10.4 mph - N/A   Mostly Cloudy
10:29 AM 51.8 °F - 48.2 °F 88% 29.84 in 10.0 mi SSW 12.7 mph 19.6 mph N/A   Overcast
10:53 AM 52.0 °F - 50.0 °F 93% 29.85 in 10.0 mi SSW 9.2 mph - N/A   Overcast
11:53 AM 53.1 °F - 51.1 °F 93% 29.85 in 9.0 mi SSW 11.5 mph - 0.03 in   Overcast
12:02 PM 53.6 °F - 51.8 °F 94% 29.82 in 10.0 mi SSW 12.7 mph - N/A   Overcast
12:53 PM 55.9 °F - 52.0 °F 87% 29.83 in 10.0 mi SW 12.7 mph - N/A   Overcast
1:21 PM 57.2 °F - 51.8 °F 82% 29.82 in 10.0 mi SW 12.7 mph 23.0 mph N/A   Mostly Cloudy
1:53 PM 59.0 °F - 52.0 °F 78% 29.82 in 10.0 mi SW 11.5 mph - N/A   Mostly Cloudy
2:09 PM 59.0 °F - 51.8 °F 77% 29.82 in 10.0 mi SW 12.7 mph 20.7 mph N/A   Scattered Clouds
3:26 PM 57.2 °F - 48.2 °F 72% 29.85 in 10.0 mi WSW 9.2 mph - N/A   Overcast
3:38 PM 57.2 °F - 48.2 °F 72% 29.85 in 10.0 mi WSW 4.6 mph - N/A   Overcast
3:53 PM 57.0 °F - 48.9 °F 74% 29.87 in 10.0 mi SW 5.8 mph - N/A   Overcast
4:53 PM 55.0 °F - 48.0 °F 77% 29.88 in 10.0 mi SSW 8.1 mph - N/A   Partly Cloudy
5:53 PM 53.1 °F - 45.0 °F 74% 29.89 in 10.0 mi SSW 6.9 mph - N/A   Clear
6:53 PM 50.0 °F - 45.0 °F 83% 29.90 in 10.0 mi South 4.6 mph - N/A   Partly Cloudy
7:53 PM 48.0 °F - 44.1 °F 86% 29.90 in 10.0 mi South 4.6 mph - N/A   Clear
8:53 PM 50.0 °F - 46.0 °F 86% 29.90 in 10.0 mi South 8.1 mph - N/A   Clear
9:53 PM 50.0 °F - 46.0 °F 86% 29.89 in 10.0 mi South 8.1 mph - N/A   Clear
10:53 PM 50.0 °F - 46.0 °F 86% 29.88 in 10.0 mi South 6.9 mph - N/A   Clear
11:53 PM 48.9 °F - 45.0 °F 86% 29.87 in 10.0 mi South 8.1 mph - N/A   Clear